West Palm Beach, FL

11:32 AM EST on December 12, 2019 (GMT -0500)
Palm Beach International

Weather History for KPBI - August, 2019

Change the Weather History Date:

Saturday, August 31, 2019

  Actual Average Record
Temperature  
Mean Temperature 84 °F 82 °F  
Max Temperature 90 °F 89 °F 95 °F (1998)
Min Temperature 77 °F 76 °F 70 °F (1984)
Degree Days  
Heating Degree Days 0 0  
Month to date heating degree days 0 0  
Since 1 June heating degree days 0 0  
Since 1 July heating degree days 0 0  
Cooling Degree Days 19 17  
Month to date cooling degree days 582 558  
Year to date cooling degree days 3166 2706  
Since 1 June cooling degree days 1765 1597  
Growing Degree Days 34 (Base 50)    
Moisture  
Dew Point 75 °F    
Average Humidity 72    
Maximum Humidity 85    
Minimum Humidity 59    
Precipitation  
Precipitation 0.33 in 0.28 in 1.92 in (1973)
Month to date precipitation 12.64 7.95  
Year to date precipitation 43.96 40.72  
Sea Level Pressure  
Sea Level Pressure 29.95 in    
Wind  
Wind Speed 12 mph (East)    
Max Wind Speed 29 mph    
Max Gust Speed 37 mph    
Visibility 9 miles    
Events Rain , Thunderstorm    
T = Trace of Precipitation, MM = Missing Value Source: NWS Daily Summary

Daily Weather History Graph

Daily Weather History Graph

Search for Another Location

Airport or City:

Astronomy

Aug. 31, 2019 Rise Set
Actual Time 6:59 AM EDT 7:41 PM EDT
Civil Twilight 6:35 AM EDT 8:05 PM EDT
Nautical Twilight 6:08 AM EDT 8:32 PM EDT
Astronomical Twilight 5:39 AM EDT 9:01 PM EDT
Moon 8:11 AM EDT (8/31) 9:00 PM EDT (8/31)
Length of Visible Light 13h 29m
Length of Day
12h 42m
New Moon, 2% of the Moon is Illuminated
Aug 31
New Moon
Sep 5
First Quarter
Sep 14
Full
Sep 21
Last Quarter
Sep 28
New

Hourly Weather History & Observations

Time (EDT) Temp. Heat Index Dew Point Humidity Pressure Visibility Wind Dir Wind Speed Gust Speed Precip Events Conditions
12:53 AM 84.0 °F 91.2 °F 73.9 °F 72% 29.97 in 10.0 mi East 15.0 mph - N/A   Scattered Clouds
1:53 AM 80.1 °F 85.1 °F 75.0 °F 85% 29.96 in 10.0 mi SE 12.7 mph - N/A   Mostly Cloudy
2:53 AM 81.0 °F 87.3 °F 75.9 °F 85% 29.94 in 10.0 mi East 10.4 mph - N/A   Mostly Cloudy
3:53 AM 81.0 °F 84.9 °F 71.1 °F 72% 29.93 in 10.0 mi East 6.9 mph - N/A   Mostly Cloudy
4:53 AM 82.0 °F 89.4 °F 75.9 °F 82% 29.93 in 10.0 mi East 6.9 mph - N/A   Mostly Cloudy
5:53 AM 82.9 °F 90.8 °F 75.9 °F 79% 29.93 in 10.0 mi East 12.7 mph - N/A   Mostly Cloudy
6:53 AM 82.9 °F 90.2 °F 75.0 °F 77% 29.95 in 10.0 mi East 11.5 mph - N/A   Mostly Cloudy
7:53 AM 82.0 °F 87.9 °F 73.9 °F 76% 29.96 in 10.0 mi East 8.1 mph - N/A   Mostly Cloudy
8:53 AM 84.0 °F 91.9 °F 75.0 °F 74% 29.96 in 10.0 mi ESE 11.5 mph - N/A   Mostly Cloudy
9:53 AM 86.0 °F 96.0 °F 75.9 °F 72% 29.97 in 10.0 mi ESE 12.7 mph - N/A   Mostly Cloudy
10:53 AM 88.0 °F 97.5 °F 75.0 °F 65% 29.97 in 10.0 mi East 18.4 mph - N/A   Mostly Cloudy
11:53 AM 88.0 °F 98.5 °F 75.9 °F 67% 29.97 in 10.0 mi East 15.0 mph - N/A   Mostly Cloudy
12:53 PM 89.1 °F 99.1 °F 75.0 °F 63% 29.96 in 10.0 mi East 15.0 mph - N/A   Mostly Cloudy
1:53 PM 88.0 °F 96.5 °F 73.9 °F 63% 29.96 in 10.0 mi East 12.7 mph - N/A   Mostly Cloudy
2:53 PM 89.1 °F 98.0 °F 73.9 °F 61% 29.94 in 10.0 mi East 17.3 mph 21.9 mph N/A   Mostly Cloudy
3:53 PM 81.0 °F 87.3 °F 75.9 °F 85% 29.92 in 7.0 mi ESE 10.4 mph - 0.06 in Rain Light Rain
4:53 PM 87.1 °F 96.3 °F 75.0 °F 67% 29.91 in 10.0 mi East 13.8 mph 18.4 mph 0.00 in   Mostly Cloudy
5:53 PM 86.0 °F 93.8 °F 73.9 °F 67% 29.90 in 10.0 mi ENE 11.5 mph - N/A   Mostly Cloudy
6:53 PM 86.0 °F 93.0 °F 73.0 °F 65% 29.91 in 10.0 mi ENE 8.1 mph - N/A   Mostly Cloudy
7:53 PM 82.9 °F 88.8 °F 73.0 °F 72% 29.93 in 10.0 mi NE 23.0 mph 31.1 mph N/A   Mostly Cloudy
8:53 PM 79.0 °F - 75.0 °F 88% 29.93 in 5.0 mi Calm Calm - 0.06 in Rain Light Rain
9:53 PM 82.9 °F 90.8 °F 75.9 °F 79% 29.95 in 10.0 mi ENE 11.5 mph - 0.01 in   Mostly Cloudy
10:53 PM 82.0 °F 89.4 °F 75.9 °F 82% 29.95 in 10.0 mi East 8.1 mph - N/A   Mostly Cloudy
11:39 PM 82.9 °F 91.8 °F 77.0 °F 82% 29.95 in 10.0 mi East 9.2 mph - N/A Thunderstorm Thunderstorm
11:53 PM 78.1 °F - 73.0 °F 84% 29.96 in 2.0 mi ENE 19.6 mph 38.0 mph 0.02 in Rain , Thunderstorm Heavy Thunderstorms and Rain